Lake Tahoe Weather Center

Moon Phase Calendar



Lake Tahoe Water Level
Online Cameras

 


      

Current Conditions in Tahoma
6/27/2022 4:03:38 AM

54°F
Feels Like 52
Clear
Humidity
47%
Pressure
30.36"
Wind
4 mph (SSW)
Dew Point
35°F
UV Index
0/10 (Low)
Visibility
6 mi

Hourly Forecast

Date & Time Mon, Jun 27
4:00 AM
Mon, Jun 27
5:00 AM
Mon, Jun 27
6:00 AM
Mon, Jun 27
7:00 AM
Mon, Jun 27
8:00 AM
Mon, Jun 27
9:00 AM
Mon, Jun 27
10:00 AM
Mon, Jun 27
11:00 AM
Mon, Jun 27
12:00 PM
Mon, Jun 27
1:00 PM
Mon, Jun 27
2:00 PM
Mon, Jun 27
3:00 PM
Mon, Jun 27
4:00 PM
Mon, Jun 27
5:00 PM
Mon, Jun 27
6:00 PM
Mon, Jun 27
7:00 PM
Mon, Jun 27
8:00 PM
Mon, Jun 27
9:00 PM
Mon, Jun 27
10:00 PM
Mon, Jun 27
11:00 PM
Tue, Jun 28
12:00 AM
Tue, Jun 28
1:00 AM
Tue, Jun 28
2:00 AM
Tue, Jun 28
3:00 AM
Tue, Jun 28
4:00 AM
Tue, Jun 28
5:00 AM
Tue, Jun 28
6:00 AM
Tue, Jun 28
7:00 AM
Tue, Jun 28
8:00 AM
Tue, Jun 28
9:00 AM
Tue, Jun 28
10:00 AM
Tue, Jun 28
11:00 AM
Tue, Jun 28
12:00 PM
Tue, Jun 28
1:00 PM
Tue, Jun 28
2:00 PM
Tue, Jun 28
3:00 PM
Tue, Jun 28
4:00 PM
Tue, Jun 28
5:00 PM
Tue, Jun 28
6:00 PM
Tue, Jun 28
7:00 PM
Tue, Jun 28
8:00 PM
Tue, Jun 28
9:00 PM
Tue, Jun 28
10:00 PM
Tue, Jun 28
11:00 PM
Wed, Jun 29
12:00 AM
Wed, Jun 29
1:00 AM
Wed, Jun 29
2:00 AM
Wed, Jun 29
3:00 AM
Condition
Clear

Clear

Clear

Clear

Clear

Clear

Clear

Clear

Clear

Clear

Clouds

Clouds

Clouds

Clouds

Clear

Clear

Clear

Clear

Clear

Clear

Clear

Clear

Clear

Clear

Clear

Clear

Clear

Clear

Clear

Clear

Clear

Clear

Clear

Clear

Clear

Clear

Clear

Clear

Clear

Clear

Clear

Clear

Clear

Clear

Clear

Clear

Clear

Clear
Temperature 54°F55°F55°F58°F63°F68°F71°F73°F74°F75°F75°F74°F74°F72°F71°F68°F63°F58°F57°F55°F55°F54°F54°F54°F53°F53°F53°F57°F62°F66°F68°F71°F72°F73°F73°F72°F72°F70°F68°F66°F62°F56°F55°F54°F54°F53°F53°F53°F
Feels Like 52°F52°F52°F55°F60°F66°F69°F71°F72°F73°F73°F72°F72°F70°F68°F66°F61°F55°F54°F53°F52°F51°F51°F51°F50°F50°F50°F54°F60°F63°F66°F68°F70°F71°F71°F70°F70°F68°F66°F64°F59°F53°F52°F51°F51°F50°F50°F50°F
Cloudiness 7%7%7%6%6%6%6%6%7%5%16%13%13%12%10%8%6%6%5%4%2%2%3%2%2%2%0%0%2%2%2%2%0%0%0%0%0%0%0%0%0%0%0%0%0%0%0%0%
Visibility 6 mi6 mi6 mi6 mi6 mi6 mi6 mi6 mi6 mi6 mi6 mi6 mi6 mi6 mi6 mi6 mi6 mi6 mi6 mi6 mi6 mi6 mi6 mi6 mi6 mi6 mi6 mi6 mi6 mi6 mi6 mi6 mi6 mi6 mi6 mi6 mi6 mi6 mi6 mi6 mi6 mi6 mi6 mi6 mi6 mi6 mi6 mi6 mi
Precipitation 0%0%0%0%0%0%0%0%0%0%0%0%0%0%0%0%0%0%0%0%0%0%0%0%0%0%0%0%0%0%0%0%0%0%0%0%0%0%0%0%0%0%0%0%0%0%0%0%
Humidity 47%43%40%37%30%23%21%21%20%18%18%19%21%23%24%27%35%42%43%43%42%41%40%39%38%37%35%33%26%23%22%22%22%21%21%22%23%23%23%25%31%38%39%39%39%39%39%40%
Dew Point 35°F33°F31°F32°F31°F26°F27°F29°F29°F27°F26°F28°F30°F30°F30°F32°F33°F33°F33°F32°F31°F30°F29°F28°F27°F26°F25°F26°F24°F25°F26°F28°F29°F29°F29°F29°F30°F29°F28°F28°F30°F29°F29°F28°F28°F28°F28°F28°F
Pressure 30.36"30.33"30.3"30.24"30.18"30.12"30.12"30.12"30.12"30.09"30.09"30.09"30.09"30.09"30.09"30.09"30.12"30.18"30.21"30.21"30.21"30.21"30.21"30.21"30.21"30.21"30.21"30.18"30.15"30.12"30.09"30.09"30.09"30.06"30.06"30.03"30.03"30.03"30.03"30.06"30.09"30.12"30.12"30.15"30.15"30.12"30.12"30.12"
Wind Speed 4 mph4 mph4.5 mph4.1 mph3.6 mph4.1 mph5.8 mph9.3 mph13.3 mph15.2 mph17.2 mph17.7 mph18.3 mph18.5 mph17.5 mph14 mph8 mph6 mph7.2 mph6.8 mph6.6 mph6.3 mph6 mph6 mph6.2 mph6.1 mph5.8 mph5.2 mph5 mph8.6 mph12.5 mph15.9 mph17.4 mph18.2 mph18.5 mph18.9 mph19.3 mph18.6 mph17.4 mph14.2 mph8.9 mph5.7 mph6.1 mph6.3 mph6 mph6 mph6.1 mph6.3 mph
Wind
Direction
212°
SSW
218°
SW
224°
SW
229°
SW
231°
SW
236°
SW
235°
SW
240°
WSW
246°
WSW
248°
WSW
252°
WSW
255°
WSW
255°
WSW
252°
WSW
251°
WSW
252°
WSW
253°
WSW
245°
WSW
235°
SW
228°
SW
223°
SW
215°
SW
206°
SSW
213°
SSW
216°
SW
218°
SW
220°
SW
221°
SW
222°
SW
231°
SW
235°
SW
236°
SW
237°
WSW
238°
WSW
241°
WSW
243°
WSW
243°
WSW
245°
WSW
248°
WSW
247°
WSW
243°
WSW
232°
SW
221°
SW
214°
SW
210°
SSW
210°
SSW
209°
SSW
209°
SSW

Daily Forecast

Date High Low Precip. Humidity
Today
Jun 27

Clear
75 °F
54 °F
0%
18%
Tuesday
Jun 28

Clear
73 °F
53 °F
0%
21%
Wednesday
Jun 29

Clear
71 °F
52 °F
0%
21%
Thursday
Jun 30

Clear
71 °F
50 °F
0%
18%
Friday
Jul 1

Clear
72 °F
48 °F
0%
17%
Saturday
Jul 2

Clear
72 °F
49 °F
0%
19%
Sunday
Jul 3

Clouds
63 °F
44 °F
0%
24%
Monday
Jul 4

Clear
67 °F
43 °F
0%
29%
Tuesday
Jul 5

Clear
71 °F
47 °F
0%
27%
Wednesday
Jul 6

Clear
76 °F
50 °F
0%
23%
Thursday
Jul 7

Clear
77 °F
53 °F
0%
20%
Friday
Jul 8

Clear
78 °F
54 °F
0%
15%
Saturday
Jul 9

Clear
78 °F
54 °F
0%
14%
Sunday
Jul 10

Clear
81 °F
54 °F
0%
12%
Monday
Jul 11

Clear
79 °F
55 °F
0%
13%
Tuesday
Jul 12

Clear
75 °F
53 °F
0%
17%

Temperature 8-14 Day Outlook



Precipitation 8-14 Day Outlook






About Us
Contact Us
Site Map
Search Site
Advertise With Us
   
Tahoe.USLakes.info
THE LAKE TAHOE WEBSITE

Copyright 2022, Lakes Online
Privacy    |    Legal